Погода в Элии

Греция     40°08′50″N   23°44′00″E
темп.,
°C
ветер,
м/с
пор.,
м/с
влажн.,
%
обл.,
%
осадки,
мм/ч
давл.,
гПа
погр.,
м
8 августа, пн
пн800:00+28св711550 0.1 1011313
03:00+28ссв611540 0.1 1011299
06:00+26с48580 0.0 1011203
09:00+28св611520 0.0 1012627
12:00+29св712440 0.0 1012594
15:00+30в59480 0.0 1011573
18:00+30вюв475127 0.0 1010460
21:00+29ссв33560 0.0 101122
9 августа, вт
вт900:00+27ссв46590 0.0 101299
03:00+27с46510 0.0 101291
06:00+27с47470 0.0 1011110
09:00+29ссв59400 0.0 1012466
12:00+30св58400 0.0 1012582
15:00+30вюв36420 0.0 1011572
18:00+30зюз53435 0.0 1010303
21:00+29з444716 0.0 100924
10 августа, ср
ср1000:00+28св44480 0.0 101136
03:00+27с45495 0.0 101167
06:00+27ссз33462 0.0 101039
09:00+29ссз34410 0.0 1011171
12:00+31св36370 0.0 1011653
15:00+32ююз233917 0.0 1010598
18:00+31юз334441 0.0 1010311
21:00+29ююв115030 0.0 101011
11 августа, чт
чт1100:00+29всв584847 0.0 1011105
03:00+27св35585 0.0 101185
06:00+27ссв235864 0.0 101245
09:00+27вюв01575 0.0 1013145
12:00+27ю22525 0.0 1013427
15:00+29ююз22510 0.0 1012432
18:00+29ююв11482 0.0 1011330
21:00+28з445625 0.0 101148
12 августа, пт
пт1200:00+27зсз355721 0.0 1012101
03:00+26с585910 0.0 1012140
06:00+26св33595 0.0 1012118
09:00+27всв01552 0.0 1013124
12:00+28вюв23500 0.0 1013306
15:00+30юз33491 0.0 1012364
18:00+29зюз55535 0.0 1011236
21:00+28з44576 0.0 101148